Regional Weather Roundup
Issued by NWS Raleigh/Durham, NC

Home | Current Version | Previous Version | Text Only | Print | Product List | Glossary On
Versions: 1 2 3 4 5 6 7 8 9 10 11 12 13 14 15 16 17 18 19 20 21 22 23 24 25 26 27
000
ASUS42 KRAH 271110
RWRRAH
NORTH CAROLINA WEATHER ROUNDUP
NATIONAL WEATHER SERVICE RALEIGH NC
700 AM EDT SAT AUG 27 2016

NOTE: "FAIR" INDICATES FEW OR NO CLOUDS BELOW 12,000 FEET WITH NO
SIGNIFICANT WEATHER AND/OR OBSTRUCTIONS TO VISIBILITY.

NCZ001-053-055-056-065-067-271200-
WESTERN NORTH CAROLINA

CITY           SKY/WX    TMP DP  RH WIND       PRES   REMARKS
ASHEVILLE      CLEAR     67  64  90 CALM      30.20R
JEFFERSON      NOT AVBL
MORGANTON      CLEAR     65  65 100 CALM      30.20R FOG
HICKORY        CLEAR     71  70  96 W5        30.13R
RUTHERFORDTON    N/A     73  71  93 CALM      30.14R
MOUNT AIRY     CLEAR     69  67  94 CALM      30.17S FOG
BOONE          CLEAR     59  59 100 CALM      30.28R FOG
$$

NCZ021-022-025-041-071-084-088-271200-
CENTRAL NORTH CAROLINA

CITY           SKY/WX    TMP DP  RH WIND       PRES   REMARKS
CHARLOTTE      PTCLDY    74  70  87 CALM      30.11R
GREENSBORO     PTCLDY    75  72  90 NE5       30.12R
WINSTON-SALEM  CLEAR     73  70  90 N3        30.14R FOG
RALEIGH-DURHAM PTCLDY    75  72  90 SW5       30.11R
FORT BRAGG     CLEAR     74  72  93 CALM      30.09S
FAYETTEVILLE   CLEAR     73  70  90 CALM      30.09S
BURLINGTON     CLEAR     74  73  97 CALM      30.11R
LAURINBURG     NOT AVBL
$$

NCZ011-015-027-028-043-044-047-080-103-271200-
NORTHEASTERN NORTH CAROLINA

CITY           SKY/WX    TMP DP  RH WIND       PRES   REMARKS
ROCKY MT-WILSO CLEAR     74  74 100 S3        30.10R
GREENVILLE     CLEAR     75  73  94 CALM      30.12R
WASHINGTON     PTCLDY    74  71  91 CALM      30.10S
ELIZABETH CITY MOCLDY    75  74  96 SW3       30.10R
MANTEO         PTCLDY    77  75  93 W5        30.11S
CAPE HATTERAS  CLEAR     75  72  90 W3        30.10R
$$

NCZ078-087-090-091-093-098-101-271200-
SOUTHEASTERN NORTH CAROLINA

CITY           SKY/WX    TMP DP  RH WIND       PRES   REMARKS
LUMBERTON      CLEAR     70  69  97 CALM      30.09R
GOLDSBORO      CLEAR     74  74 100 SE1       30.09R
KINSTON        CLEAR     73  72  94 CALM      30.11R
KENANSVILLE    CLEAR     70  68  94 CALM      30.11S FOG
NEW BERN       PTCLDY    73  71  93 CALM      30.11S
CHERRY POINT   CLEAR     74  71  91 CALM      30.11R
BEAUFORT       CLEAR     75  73  93 CALM      30.10R
JACKSONVILLE   CLEAR     72  70  93 CALM      30.10R
WILMINGTON     CLEAR     72  70  93 NE3       30.09S
$$





USA.gov is the U.S. government's official web portal to all federal, state and local government web resources and services.